Year,Month,Day,Hour,Minute,Value (Times are PST for temperature in C)
2013,02,22,10,54,4.50
2013,02,22,10,55,4.50
2013,02,22,10,56,4.50
2013,02,22,10,57,4.50
2013,02,22,10,58,4.50
2013,02,22,10,59,4.50
2013,02,22,11,00,4.60
2013,02,22,11,01,4.60
2013,02,22,11,02,4.60
2013,02,22,11,03,4.60
2013,02,22,11,04,4.60
2013,02,22,11,05,4.60
2013,02,22,11,06,4.60
2013,02,22,11,07,4.60
2013,02,22,11,08,4.60
2013,02,22,11,09,4.60
2013,02,22,11,10,4.60
2013,02,22,11,11,4.60
2013,02,22,11,12,4.60
2013,02,22,11,13,4.60
2013,02,22,11,14,4.60
2013,02,22,11,15,4.70
2013,02,22,11,16,4.60
2013,02,22,11,17,4.70
2013,02,22,11,18,4.70
2013,02,22,11,19,4.70
2013,02,22,11,20,4.70
2013,02,22,11,21,4.70
2013,02,22,11,22,4.70
2013,02,22,11,23,4.80
2013,02,22,11,24,4.80
2013,02,22,11,25,4.80
2013,02,22,11,26,4.90
2013,02,22,11,27,4.90
2013,02,22,11,28,4.90
2013,02,22,11,29,4.90
2013,02,22,11,30,4.90
2013,02,22,11,31,5.00
2013,02,22,11,32,5.10
2013,02,22,11,33,5.10
2013,02,22,11,34,5.10
2013,02,22,11,35,5.10
2013,02,22,11,36,5.10
2013,02,22,11,37,5.10
2013,02,22,11,38,5.20
2013,02,22,11,39,5.20
2013,02,22,11,40,5.20
2013,02,22,11,41,5.20
2013,02,22,11,42,5.30
2013,02,22,11,43,5.30
2013,02,22,11,44,5.30
2013,02,22,11,45,5.30
2013,02,22,11,46,5.30
2013,02,22,11,47,5.30
2013,02,22,11,48,5.30
2013,02,22,11,49,5.30
2013,02,22,11,50,5.30
2013,02,22,11,51,5.40
2013,02,22,11,52,5.40
2013,02,22,11,53,5.50
2013,02,22,11,54,5.50
2013,02,22,11,55,5.60
2013,02,22,11,56,5.60
2013,02,22,11,57,5.60
2013,02,22,11,58,5.70
2013,02,22,11,59,5.70
2013,02,22,12,00,5.70
2013,02,22,12,01,5.60
2013,02,22,12,02,5.70
2013,02,22,12,03,5.70
2013,02,22,12,04,5.70
2013,02,22,12,05,5.80
2013,02,22,12,06,5.90
2013,02,22,12,07,5.90
2013,02,22,12,08,5.90
2013,02,22,12,09,5.90
2013,02,22,12,10,5.90
2013,02,22,12,11,5.90
2013,02,22,12,12,6.00
2013,02,22,12,13,6.00
2013,02,22,12,14,6.00
2013,02,22,12,15,6.10
2013,02,22,12,16,6.10
2013,02,22,12,17,6.10
2013,02,22,12,18,6.20
2013,02,22,12,19,6.20
2013,02,22,12,20,6.20
2013,02,22,12,21,6.20
2013,02,22,12,22,6.20
2013,02,22,12,23,6.30
2013,02,22,12,24,6.30
2013,02,22,12,25,6.40
2013,02,22,12,26,6.40
2013,02,22,12,27,6.40
2013,02,22,12,28,6.50
2013,02,22,12,29,6.60
2013,02,22,12,30,6.60
2013,02,22,12,31,6.70
2013,02,22,12,32,6.70
2013,02,22,12,33,6.70
2013,02,22,12,34,6.70
2013,02,22,12,35,6.60
2013,02,22,12,36,6.70
2013,02,22,12,37,6.60
2013,02,22,12,38,6.60
2013,02,22,12,39,6.60
2013,02,22,12,40,6.60
2013,02,22,12,41,6.60
2013,02,22,12,42,6.60
2013,02,22,12,43,6.60
2013,02,22,12,44,6.60
2013,02,22,12,45,6.60
2013,02,22,12,46,6.60
2013,02,22,12,47,6.60
2013,02,22,12,48,6.60
2013,02,22,12,49,6.60
2013,02,22,12,50,6.60
2013,02,22,12,51,6.60
2013,02,22,12,52,6.60
2013,02,22,12,53,6.60
2013,02,22,12,54,6.60
2013,02,22,12,55,6.60
2013,02,22,12,56,6.60
2013,02,22,12,57,6.60
2013,02,22,12,58,6.60
2013,02,22,12,59,6.60
2013,02,22,13,00,6.60
2013,02,22,13,01,6.60
2013,02,22,13,02,6.60
2013,02,22,13,03,6.60
2013,02,22,13,04,6.60
2013,02,22,13,05,6.60
2013,02,22,13,06,6.60
2013,02,22,13,07,6.70
2013,02,22,13,08,6.80
2013,02,22,13,09,6.90
2013,02,22,13,10,7.00
2013,02,22,13,11,7.10
2013,02,22,13,12,7.30
2013,02,22,13,13,7.40
2013,02,22,13,14,7.40
2013,02,22,13,15,7.50
2013,02,22,13,16,7.60
2013,02,22,13,17,7.70
2013,02,22,13,18,7.80
2013,02,22,13,19,7.90
2013,02,22,13,20,8.00
2013,02,22,13,21,8.10
2013,02,22,13,22,8.20
2013,02,22,13,23,8.30
2013,02,22,13,24,8.30
2013,02,22,13,25,8.40
2013,02,22,13,26,8.50
2013,02,22,13,27,8.60
2013,02,22,13,28,8.70
2013,02,22,13,29,8.70
2013,02,22,13,30,8.70
2013,02,22,13,31,8.70
2013,02,22,13,32,8.70
2013,02,22,13,33,8.70
2013,02,22,13,34,8.80
2013,02,22,13,35,8.80
2013,02,22,13,36,8.80
2013,02,22,13,37,8.80
2013,02,22,13,38,8.90
2013,02,22,13,39,8.90
2013,02,22,13,40,8.90
2013,02,22,13,41,8.80
2013,02,22,13,42,8.70
2013,02,22,13,43,8.70
2013,02,22,13,44,8.80
2013,02,22,13,45,8.80
2013,02,22,13,46,8.80
2013,02,22,13,47,8.80
2013,02,22,13,48,8.80
2013,02,22,13,49,8.90
2013,02,22,13,50,8.90
2013,02,22,13,51,8.90
2013,02,22,13,52,8.90
2013,02,22,13,53,9.00
2013,02,22,13,54,9.00
2013,02,22,13,55,9.10
2013,02,22,13,56,9.20
2013,02,22,13,57,9.20
2013,02,22,13,58,9.20
2013,02,22,13,59,9.20
2013,02,22,14,00,9.20
2013,02,22,14,01,9.20
2013,02,22,14,02,9.20
2013,02,22,14,03,9.20
2013,02,22,14,04,9.20
2013,02,22,14,05,9.20
2013,02,22,14,06,9.20
2013,02,22,14,07,9.20
2013,02,22,14,08,9.20
2013,02,22,14,09,9.20
2013,02,22,14,10,9.20
2013,02,22,14,11,9.10
2013,02,22,14,12,9.00
2013,02,22,14,13,9.00
2013,02,22,14,14,9.00
2013,02,22,14,15,9.00
2013,02,22,14,16,9.00
2013,02,22,14,17,9.00
2013,02,22,14,18,9.10
2013,02,22,14,19,9.10
2013,02,22,14,20,9.00
2013,02,22,14,21,9.00
2013,02,22,14,22,9.00
2013,02,22,14,23,8.90
2013,02,22,14,24,8.80
2013,02,22,14,25,8.70
2013,02,22,14,26,8.70
2013,02,22,14,27,8.60
2013,02,22,14,28,8.50
2013,02,22,14,29,8.50
2013,02,22,14,30,8.40
2013,02,22,14,31,8.40
2013,02,22,14,32,8.30
2013,02,22,14,33,8.40
2013,02,22,14,34,8.40
2013,02,22,14,35,8.50
2013,02,22,14,36,8.40
2013,02,22,14,37,8.40
2013,02,22,14,38,8.30
2013,02,22,14,39,8.30
2013,02,22,14,40,8.30
2013,02,22,14,41,8.20
2013,02,22,14,42,8.20
2013,02,22,14,43,8.20
2013,02,22,14,44,8.30
2013,02,22,14,45,8.30
2013,02,22,14,46,8.30
2013,02,22,14,47,8.20
2013,02,22,14,48,8.20
2013,02,22,14,49,8.30
2013,02,22,14,50,8.30
2013,02,22,14,51,8.30
2013,02,22,14,52,8.30
2013,02,22,14,53,8.30
2013,02,22,14,54,8.30
2013,02,22,14,55,8.20
2013,02,22,14,56,8.20
2013,02,22,14,57,8.10
2013,02,22,14,58,8.10
2013,02,22,14,59,8.00
2013,02,22,15,00,8.00
2013,02,22,15,01,7.90
2013,02,22,15,02,7.90
2013,02,22,15,03,7.90
2013,02,22,15,04,7.90
2013,02,22,15,05,7.90
2013,02,22,15,06,8.00
2013,02,22,15,07,8.00
2013,02,22,15,08,8.00
2013,02,22,15,09,8.00
2013,02,22,15,10,8.00
2013,02,22,15,11,8.00
2013,02,22,15,12,8.00
2013,02,22,15,13,7.90
2013,02,22,15,14,7.90
2013,02,22,15,15,7.90
2013,02,22,15,16,7.90
2013,02,22,15,17,7.90
2013,02,22,15,18,8.00
2013,02,22,15,19,8.00
2013,02,22,15,20,8.00
2013,02,22,15,21,7.90
2013,02,22,15,22,7.90
2013,02,22,15,23,7.80
2013,02,22,15,24,7.80
2013,02,22,15,25,7.80
2013,02,22,15,26,7.80
2013,02,22,15,27,7.80
2013,02,22,15,28,7.80
2013,02,22,15,29,7.90
2013,02,22,15,30,7.90
2013,02,22,15,31,7.90
2013,02,22,15,32,7.80
2013,02,22,15,33,7.80
2013,02,22,15,34,7.80
2013,02,22,15,35,7.70
2013,02,22,15,36,7.60
2013,02,22,15,37,7.60
2013,02,22,15,38,7.40
2013,02,22,15,39,7.30
2013,02,22,15,40,7.20
2013,02,22,15,41,7.10
2013,02,22,15,42,7.00
2013,02,22,15,43,6.90
2013,02,22,15,44,6.80
2013,02,22,15,45,6.50
2013,02,22,15,46,6.30
2013,02,22,15,47,6.20
2013,02,22,15,48,6.10
2013,02,22,15,49,6.00
2013,02,22,15,50,5.90
2013,02,22,15,51,5.80
2013,02,22,15,52,5.70
2013,02,22,15,53,5.70
2013,02,22,15,54,5.70
2013,02,22,15,55,5.70
2013,02,22,15,56,5.70
2013,02,22,15,57,5.70
2013,02,22,15,58,5.70
2013,02,22,15,59,5.80
2013,02,22,16,00,5.90
2013,02,22,16,01,6.00
2013,02,22,16,02,6.20
2013,02,22,16,03,6.20
2013,02,22,16,04,6.30
2013,02,22,16,05,6.40
2013,02,22,16,06,6.50
2013,02,22,16,07,6.60
2013,02,22,16,08,6.60
2013,02,22,16,09,6.70
2013,02,22,16,10,6.80
2013,02,22,16,11,6.80
2013,02,22,16,12,6.90
2013,02,22,16,13,6.90
2013,02,22,16,14,6.90
2013,02,22,16,15,7.00
2013,02,22,16,16,7.00
2013,02,22,16,17,7.00
2013,02,22,16,18,7.00
2013,02,22,16,19,7.10
2013,02,22,16,20,7.10
2013,02,22,16,21,7.10
2013,02,22,16,22,7.10
2013,02,22,16,23,7.10
2013,02,22,16,24,7.10
2013,02,22,16,25,7.00
2013,02,22,16,26,7.00
2013,02,22,16,27,7.00
2013,02,22,16,28,7.00
2013,02,22,16,29,6.90
2013,02,22,16,30,6.90
2013,02,22,16,31,6.90
2013,02,22,16,32,6.80
2013,02,22,16,33,6.80
2013,02,22,16,34,6.90
2013,02,22,16,35,6.90
2013,02,22,16,36,6.90
2013,02,22,16,37,7.00
2013,02,22,16,38,7.00
2013,02,22,16,39,7.00
2013,02,22,16,40,7.10
2013,02,22,16,41,7.10
2013,02,22,16,42,7.10
2013,02,22,16,43,7.10
2013,02,22,16,44,7.00
2013,02,22,16,45,7.00
2013,02,22,16,46,7.00
2013,02,22,16,47,6.90
2013,02,22,16,48,6.90
2013,02,22,16,49,6.80
2013,02,22,16,50,6.80
2013,02,22,16,51,6.70
2013,02,22,16,52,6.70
2013,02,22,16,53,6.60
2013,02,22,16,54,6.60
2013,02,22,16,55,6.60
2013,02,22,16,56,6.40
2013,02,22,16,57,6.40
2013,02,22,16,58,6.40
2013,02,22,16,59,6.30
2013,02,22,17,00,6.30
2013,02,22,17,01,6.20
2013,02,22,17,02,6.20
2013,02,22,17,03,6.20
2013,02,22,17,04,6.20
2013,02,22,17,05,6.10
2013,02,22,17,06,6.10
2013,02,22,17,07,6.10
2013,02,22,17,08,6.10
2013,02,22,17,09,6.00
2013,02,22,17,10,6.00
2013,02,22,17,11,6.00
2013,02,22,17,12,5.90
2013,02,22,17,13,5.90
2013,02,22,17,14,5.80
2013,02,22,17,15,5.80
2013,02,22,17,16,5.70
2013,02,22,17,17,5.70
2013,02,22,17,18,5.70
2013,02,22,17,19,5.70
2013,02,22,17,20,5.70
2013,02,22,17,21,5.60
2013,02,22,17,22,5.60
2013,02,22,17,23,5.60
2013,02,22,17,24,5.60
2013,02,22,17,25,5.60
2013,02,22,17,26,5.60
2013,02,22,17,27,5.60
2013,02,22,17,28,5.70
2013,02,22,17,29,5.70
2013,02,22,17,30,5.70
2013,02,22,17,31,5.70
2013,02,22,17,32,5.70
2013,02,22,17,33,5.70
2013,02,22,17,34,5.70
2013,02,22,17,35,5.70
2013,02,22,17,36,5.70
2013,02,22,17,37,5.70
2013,02,22,17,38,5.70
2013,02,22,17,39,5.70
2013,02,22,17,40,5.70
2013,02,22,17,41,5.70
